Find Starlink 2371

NORAD ID: 47911 Int'l Des: 2021-021 Owner: SPXS Country: US Constellation: starlink operational
LEOCIRCULAR

Live Position

Loading 3D Globe...

About Starlink 2371

Description loading...

Upcoming Passes

Passes for default location (London). Set your location on the main map for personalized predictions.

Altitude History

Loading altitude history...

Two-Line Element Set

1 47911U 21021BD 26107.17174606 .00000540 00000-0 29151-4 0 9997
2 47911 53.1621 102.1722 0001287 102.4495 257.6651 15.31708936281804
Epoch: Apr 17, 2026 • Age: 14 hours

Current Status

Altitude 484.1 km
Velocity 7.62 km/s
Sub-Earth Point -39.31°S, 153.61°W
Launch Date Mar 14, 2021
Age 5 years
Type internet

Technical Details

Classification Payload
Mass 260.00 kg
Dry Mass 248.00 kg
Total Mass 260.00 kg
Length 0.20 m
Diameter 2.80 m
Span 9.00 m
Shape Box + pan
Manufacturer SPXS
Bus Type Starlink
Phase Status In Orbit
Owner/State SPXS/US

Most Searched